PORTS® Data Listing: 8771450 Pier 21, TX

CO-OPS RAW PORTS DATA

************************      PRELIMINARY DATA      ************************** 

     THIS RAW DATA HAS NOT BEEN SUBJECT TO THE NATIONAL OCEAN SERVICE'S        
     QUALITY CONTROL OR QUALITY ASSURANCE PROCEDURES AND DOES NOT MEET         
     THE CRITERIA AND STANDARDS OF OFFICIAL NATIONAL OCEAN SERVICE             
     DATA.  IT IS RELEASED FOR LIMITED PUBLIC USE AS PRELIMINARY DATA TO       
     BE USED ONLY WITH APPROPRIATE CAUTION.                                    

************************      PRELIMINARY DATA      ************************** 


       CD   -   Calendar date
       T    -   Time
       TZ   -   Timezone
       PW   -   Predicted water level (feet above MLLW)
       OW   -   Observed water level (feet above MLLW)
       WS   -   Wind speed (knots)
       WD   -   Wind direction (degrees true)
       WG   -   Wind gust (knots)
       AT   -   Air temperature (degrees farenheit)
       WT   -   Water temperature (degrees farenheit)
       AP   -   Air pressure (millibars)
       SA   -   Salinty (PSU - Practical Salinity Units)
       SG   -   Specific gravity
       RH   -   Relative humidity
       AG   -   Air gap (feet)
       VI   -   Visibility (nautical miles)

       ** NOTE **
       A variable that has its data fields filled with "9"s, indicates that
       data was not collected for that sample period.
       **********


STATION NAME: Galveston Pier 21 (8771450)
****************************************************************************************************
    CD       T    TZ    PW     OW    WS   WD   WG    AT    WT    AP    SA    SG     RH    AG   VI
****************************************************************************************************
2020/02/15 23:06 CST    0.52   2.07    4  111    6  61.7  59.4 1018.6 -9.9 -9.999 -99.9 -99.99 -9.99
2020/02/15 23:12 CST    0.50   1.94    3  101    6  61.7  59.4 1018.6 -9.9 -9.999 -99.9 -99.99 -9.99
2020/02/15 23:18 CST    0.48   1.97    4  123    7  61.5  59.4 1018.6 -9.9 -9.999 -99.9 -99.99 -9.99
2020/02/15 23:24 CST    0.46   1.95    4  127    6  61.3  59.4 1018.6 -9.9 -9.999 -99.9 -99.99 -9.99
2020/02/15 23:30 CST    0.43   1.93    5  126    7  61.3  59.4 1018.6 -9.9 -9.999 -99.9 -99.99 -9.99
2020/02/15 23:36 CST    0.41   1.95    3  133    6  61.5  59.4 1018.8 -9.9 -9.999 -99.9 -99.99 -9.99
2020/02/15 23:42 CST    0.39   1.88    3  125    4  61.7  59.4 1018.9 -9.9 -9.999 -99.9 -99.99 -9.99
2020/02/15 23:48 CST    0.36   1.84    2  127    5  61.9  59.4 1018.9 -9.9 -9.999 -99.9 -99.99 -9.99
2020/02/15 23:54 CST    0.34   1.92    2  114    4  62.1  59.4 1019.1 -9.9 -9.999 -99.9 -99.99 -9.99
2020/02/16 00:00 CST    0.31   1.88    2  109    3  62.1  59.4 1018.9 -9.9 -9.999 -99.9 -99.99 -9.99
2020/02/16 00:06 CST    0.29   1.81    3  115    4  62.1  59.4 1018.8 -9.9 -9.999 -99.9 -99.99 -9.99
2020/02/16 00:12 CST    0.26   1.69    3  127    4  62.1  59.4 1018.7 -9.9 -9.999 -99.9 -99.99 -9.99
2020/02/16 00:18 CST    0.24   1.76    3  123    4  62.1  59.4 1018.7 -9.9 -9.999 -99.9 -99.99 -9.99
2020/02/16 00:24 CST    0.21   1.75    2  111    4  62.1  59.4 1018.6 -9.9 -9.999 -99.9 -99.99 -9.99
2020/02/16 00:30 CST    0.18   1.61    2  123    3  62.2  59.4 1018.6 -9.9 -9.999 -99.9 -99.99 -9.99
2020/02/16 00:36 CST    0.16   1.67    1   97    3  62.1  59.4 1018.7 -9.9 -9.999 -99.9 -99.99 -9.99
2020/02/16 00:42 CST    0.13   1.61    1   89    2  62.1  59.4 1018.7 -9.9 -9.999 -99.9 -99.99 -9.99
2020/02/16 00:48 CST    0.11   1.59    2   92    3  62.1  59.4 1018.6 -9.9 -9.999 -99.9 -99.99 -9.99
2020/02/16 00:54 CST    0.08   1.60    1   84    3  62.1  59.4 1018.6 -9.9 -9.999 -99.9 -99.99 -9.99
2020/02/16 01:00 CST    0.06   1.54    1   71    2  61.7  59.4 1018.4 -9.9 -9.999 -99.9 -99.99 -9.99
2020/02/16 01:06 CST    0.03   1.51    1   73    2  61.7  59.4 1018.2 -9.9 -9.999 -99.9 -99.99 -9.99
2020/02/16 01:12 CST    0.01   1.50    1   85    2  61.7  59.4 1018.2 -9.9 -9.999 -99.9 -99.99 -9.99
2020/02/16 01:18 CST   -0.02   1.50    0  107    1  61.9  59.4 1018.3 -9.9 -9.999 -99.9 -99.99 -9.99
2020/02/16 01:24 CST   -0.04   1.45    0  109    0  61.7  59.5 1018.2 -9.9 -9.999 -99.9 -99.99 -9.99
2020/02/16 01:30 CST   -0.07   1.40    0   99    1  61.5  59.5 1018.0 -9.9 -9.999 -99.9 -99.99 -9.99
2020/02/16 01:36 CST   -0.09   1.36    0  133    1  61.7  59.4 1018.0 -9.9 -9.999 -99.9 -99.99 -9.99
2020/02/16 01:42 CST   -0.11   1.36    0    3    1  61.5  59.5 1018.1 -9.9 -9.999 -99.9 -99.99 -9.99
2020/02/16 01:48 CST   -0.13   1.33    1   17    1  61.2  59.5 1018.0 -9.9 -9.999 -99.9 -99.99 -9.99
2020/02/16 01:54 CST   -0.15   1.28    0   35    0  61.5  59.5 1017.8 -9.9 -9.999 -99.9 -99.99 -9.99
2020/02/16 02:00 CST   -0.18   1.27    1   97    2  61.5  59.5 1017.5 -9.9 -9.999 -99.9 -99.99 -9.99
2020/02/16 02:06 CST   -0.20   1.25    0   41    1  61.5  59.5 1017.5 -9.9 -9.999 -99.9 -99.99 -9.99
2020/02/16 02:12 CST   -0.22   1.22    0   33    0  61.5  59.5 1017.5 -9.9 -9.999 -99.9 -99.99 -9.99
2020/02/16 02:18 CST   -0.23   1.22    0   33    0  61.7  59.5 1017.3 -9.9 -9.999 -99.9 -99.99 -9.99
2020/02/16 02:24 CST   -0.25   1.19    0  116    2  61.5  59.5 1017.3 -9.9 -9.999 -99.9 -99.99 -9.99
2020/02/16 02:30 CST   -0.27   1.19    3   16    3  60.8  59.5 1017.4 -9.9 -9.999 -99.9 -99.99 -9.99
2020/02/16 02:36 CST   -0.29   1.18    2  349    3  61.3  59.5 1017.4 -9.9 -9.999 -99.9 -99.99 -9.99
2020/02/16 02:42 CST   -0.30   1.17    1   13    2  61.3  59.5 1017.2 -9.9 -9.999 -99.9 -99.99 -9.99
2020/02/16 02:48 CST   -0.32   1.16    0   95    1  61.3  59.5 1017.1 -9.9 -9.999 -99.9 -99.99 -9.99
2020/02/16 02:54 CST   -0.33   1.11    0  108    0  61.2  59.5 1017.0 -9.9 -9.999 -99.9 -99.99 -9.99
2020/02/16 03:00 CST   -0.35   1.08    2  327    3  60.6  59.5 1017.2 -9.9 -9.999 -99.9 -99.99 -9.99
2020/02/16 03:06 CST   -0.36   1.09    2  356    3  60.4  59.5 1017.0 -9.9 -9.999 -99.9 -99.99 -9.99
2020/02/16 03:12 CST   -0.37   1.10    1   12    2  60.3  59.5 1016.9 -9.9 -9.999 -99.9 -99.99 -9.99
2020/02/16 03:18 CST   -0.38   1.12    1   15    1  60.4  59.5 1016.9 -9.9 -9.999 -99.9 -99.99 -9.99
2020/02/16 03:24 CST   -0.39   1.12    2   42    2  60.3  59.5 1016.9 -9.9 -9.999 -99.9 -99.99 -9.99
2020/02/16 03:30 CST   -0.40   1.09    3  359    4  60.3  59.5 1016.7 -9.9 -9.999 -99.9 -99.99 -9.99
2020/02/16 03:36 CST   -0.41   1.07    5  339    6  59.9  59.5 1016.9 -9.9 -9.999 -99.9 -99.99 -9.99
2020/02/16 03:42 CST   -0.42   1.05    3  329    6  59.7  59.5 1017.0 -9.9 -9.999 -99.9 -99.99 -9.99
2020/02/16 03:48 CST   -0.42   1.03    4  344    4  59.7  59.5 1016.9 -9.9 -9.999 -99.9 -99.99 -9.99
2020/02/16 03:54 CST   -0.43   0.99    2  339    4  59.5  59.5 1016.9 -9.9 -9.999 -99.9 -99.99 -9.99
2020/02/16 04:00 CST   -0.43   1.00    2   19    2  59.5  59.5 1016.9 -9.9 -9.999 -99.9 -99.99 -9.99
2020/02/16 04:06 CST   -0.44   1.02    0   16    2  59.5  59.5 1017.0 -9.9 -9.999 -99.9 -99.99 -9.99
2020/02/16 04:12 CST   -0.44   1.03    0  336    1  59.5  59.5 1016.9 -9.9 -9.999 -99.9 -99.99 -9.99
2020/02/16 04:18 CST   -0.44   1.01    1   65    2  59.5  59.5 1016.8 -9.9 -9.999 -99.9 -99.99 -9.99
2020/02/16 04:24 CST   -0.44   0.98    2   28    2  59.4  59.5 1016.7 -9.9 -9.999 -99.9 -99.99 -9.99
2020/02/16 04:30 CST   -0.44   0.98    3    2    4  59.4  59.5 1016.8 -9.9 -9.999 -99.9 -99.99 -9.99
2020/02/16 04:36 CST   -0.44   1.00    3  350    4  59.4  59.5 1016.8 -9.9 -9.999 -99.9 -99.99 -9.99
2020/02/16 04:42 CST   -0.44   1.01    4  336    4  59.2  59.5 1016.8 -9.9 -9.999 -99.9 -99.99 -9.99
2020/02/16 04:48 CST   -0.44   0.99    3  326    4  59.2  59.5 1016.7 -9.9 -9.999 -99.9 -99.99 -9.99
2020/02/16 04:54 CST   -0.44   0.99    3  329    3  59.2  59.5 1016.7 -9.9 -9.999 -99.9 -99.99 -9.99
2020/02/16 05:00 CST   -0.43   0.99    4  329    4  59.2  59.5 1016.8 -9.9 -9.999 -99.9 -99.99 -9.99
2020/02/16 05:06 CST   -0.43   1.00    4  343    4  59.4  59.5 1016.6 -9.9 -9.999 -99.9 -99.99 -9.99
2020/02/16 05:12 CST   -0.42   1.00    3    5    5  59.2  59.5 1016.6 -9.9 -9.999 -99.9 -99.99 -9.99
2020/02/16 05:18 CST   -0.41   0.99    4    5    5  59.0  59.5 1016.6 -9.9 -9.999 -99.9 -99.99 -9.99
2020/02/16 05:24 CST   -0.40   0.99    2  360    4  59.0  59.5 1016.6 -9.9 -9.999 -99.9 -99.99 -9.99
2020/02/16 05:30 CST   -0.39   1.00    2  358    3  59.0  59.5 1016.6 -9.9 -9.999 -99.9 -99.99 -9.99
2020/02/16 05:36 CST   -0.38   1.04    3  337    4  59.0  59.5 1016.8 -9.9 -9.999 -99.9 -99.99 -9.99
2020/02/16 05:42 CST   -0.37   1.05    2  344    4  59.2  59.5 1016.7 -9.9 -9.999 -99.9 -99.99 -9.99
2020/02/16 05:48 CST   -0.36   1.05    2  343    4  59.2  59.5 1016.7 -9.9 -9.999 -99.9 -99.99 -9.99
2020/02/16 05:54 CST   -0.35   1.05    2  346    3  59.2  59.5 1016.8 -9.9 -9.999 -99.9 -99.99 -9.99
2020/02/16 06:00 CST   -0.33   1.05    1  352    2  59.2  59.5 1016.9 -9.9 -9.999 -99.9 -99.99 -9.99
2020/02/16 06:06 CST   -0.32   1.06    2  354    3  59.2  59.5 1016.9 -9.9 -9.999 -99.9 -99.99 -9.99
2020/02/16 06:12 CST   -0.30   1.08    3  353    4  59.2  59.5 1016.9 -9.9 -9.999 -99.9 -99.99 -9.99
2020/02/16 06:18 CST   -0.29   1.11    3  347    5  59.0  59.5 1017.0 -9.9 -9.999 -99.9 -99.99 -9.99
2020/02/16 06:24 CST   -0.27   1.15    3  345    4  59.0  59.5 1017.1 -9.9 -9.999 -99.9 -99.99 -9.99
2020/02/16 06:30 CST   -0.25   1.16    3  342    4  59.0  59.5 1017.1 -9.9 -9.999 -99.9 -99.99 -9.99
2020/02/16 06:36 CST   -0.23   1.17    4  333    4  59.0  59.5 1017.3 -9.9 -9.999 -99.9 -99.99 -9.99
2020/02/16 06:42 CST   -0.21   1.21    5  340    6  58.8  59.5 1017.5 -9.9 -9.999 -99.9 -99.99 -9.99
2020/02/16 06:48 CST   -0.19   1.23    3  341    5  58.6  59.5 1017.4 -9.9 -9.999 -99.9 -99.99 -9.99
2020/02/16 06:54 CST   -0.17   1.24    2   18    4  58.5  59.5 1017.4 -9.9 -9.999 -99.9 -99.99 -9.99
2020/02/16 07:00 CST   -0.15   1.24    2   15    3  58.5  59.5 1017.4 -9.9 -9.999 -99.9 -99.99 -9.99
2020/02/16 07:06 CST   -0.12   1.25    0   45    2  58.5  59.5 1017.4 -9.9 -9.999 -99.9 -99.99 -9.99
2020/02/16 07:12 CST   -0.10   1.28    0   65    1  58.6  59.5 1017.5 -9.9 -9.999 -99.9 -99.99 -9.99
2020/02/16 07:18 CST   -0.07   1.32    2    1    3  58.5  59.5 1017.6 -9.9 -9.999 -99.9 -99.99 -9.99
2020/02/16 07:24 CST   -0.05   1.33    3  354    3  58.5  59.5 1017.8 -9.9 -9.999 -99.9 -99.99 -9.99
2020/02/16 07:30 CST   -0.02   1.33    3    6    5  58.1  59.5 1017.9 -9.9 -9.999 -99.9 -99.99 -9.99
2020/02/16 07:36 CST    0.00   1.35    2   11    3  58.3  59.5 1017.9 -9.9 -9.999 -99.9 -99.99 -9.99
2020/02/16 07:42 CST    0.03   1.38    2   17    3  58.5  59.5 1018.0 -9.9 -9.999 -99.9 -99.99 -9.99
2020/02/16 07:48 CST    0.06   1.39    2   11    4  58.6  59.5 1018.0 -9.9 -9.999 -99.9 -99.99 -9.99
2020/02/16 07:54 CST    0.09   1.38    2    9    3  58.6  59.5 1018.2 -9.9 -9.999 -99.9 -99.99 -9.99
2020/02/16 08:00 CST    0.12   1.39    1   19    3  58.8  59.5 1018.1 -9.9 -9.999 -99.9 -99.99 -9.99
2020/02/16 08:06 CST    0.14   1.40    4   10    4  59.0  59.5 1018.3 -9.9 -9.999 -99.9 -99.99 -9.99
2020/02/16 08:12 CST    0.17   1.42    3   15    4  59.0  59.5 1018.3 -9.9 -9.999 -99.9 -99.99 -9.99
2020/02/16 08:18 CST    0.20   1.44    3   16    4  59.0  59.5 1018.4 -9.9 -9.999 -99.9 -99.99 -9.99
2020/02/16 08:24 CST    0.23   1.43    5  359    6  59.0  59.5 1018.6 -9.9 -9.999 -99.9 -99.99 -9.99
2020/02/16 08:30 CST    0.26   1.45    5    5    7  58.8  59.5 1018.5 -9.9 -9.999 -99.9 -99.99 -9.99
2020/02/16 08:36 CST    0.29   1.46    4   19    5  58.8  59.5 1018.5 -9.9 -9.999 -99.9 -99.99 -9.99
2020/02/16 08:42 CST    0.32   1.49    4   18    5  58.8  59.5 1018.4 -9.9 -9.999 -99.9 -99.99 -9.99
2020/02/16 08:48 CST    0.35   1.51    3   28    6  59.0  59.5 1018.4 -9.9 -9.999 -99.9 -99.99 -9.99
2020/02/16 08:54 CST    0.38   1.50    5   37    7  58.8  59.5 1018.4 -9.9 -9.999 -99.9 -99.99 -9.99
2020/02/16 09:00 CST    0.41   1.52    5   31    7  58.8  59.5 1018.4 -9.9 -9.999 -99.9 -99.99 -9.99
2020/02/16 09:06 CST    0.44   1.54    5   24    7  58.8  59.5 1018.4 -9.9 -9.999 -99.9 -99.99 -9.99
2020/02/16 09:12 CST    0.47   1.53    3   37    5  59.0  59.5 1018.5 -9.9 -9.999 -99.9 -99.99 -9.99
2020/02/16 09:18 CST    0.49   1.52    2   54    4  59.0  59.5 1018.5 -9.9 -9.999 -99.9 -99.99 -9.99
2020/02/16 09:24 CST    0.52   1.52    4   37    5  59.0  59.5 1018.6 -9.9 -9.999 -99.9 -99.99 -9.99
2020/02/16 09:30 CST    0.55   1.58    4   25    6  59.2  59.5 1018.6 -9.9 -9.999 -99.9 -99.99 -9.99
2020/02/16 09:36 CST    0.58   1.59    6   13    7  59.2  59.5 1018.6 -9.9 -9.999 -99.9 -99.99 -9.99
2020/02/16 09:42 CST    0.60   1.57    5   27    7  59.2  59.5 1018.5 -9.9 -9.999 -99.9 -99.99 -9.99
2020/02/16 09:48 CST    0.63   1.54    6   17    8  59.2  59.5 1018.4 -9.9 -9.999 -99.9 -99.99 -9.99
2020/02/16 09:54 CST    0.66   1.55    4   33    6  59.2  59.5 1018.3 -9.9 -9.999 -99.9 -99.99 -9.99
2020/02/16 10:00 CST    0.68   1.61    4   44    5  59.2  59.5 1018.4 -9.9 -9.999 -99.9 -99.99 -9.99
2020/02/16 10:06 CST    0.71   1.64    4   75    4  59.2  59.5 1018.5 -9.9 -9.999 -99.9 -99.99 -9.99
2020/02/16 10:12 CST    0.73   1.61    3   39    4  59.2  59.5 1018.4 -9.9 -9.999 -99.9 -99.99 -9.99
2020/02/16 10:18 CST    0.75   1.62    3   53    5  59.4  59.5 1018.4 -9.9 -9.999 -99.9 -99.99 -9.99
2020/02/16 10:24 CST    0.77   1.67    4   38    5  59.4  59.5 1018.4 -9.9 -9.999 -99.9 -99.99 -9.99
2020/02/16 10:30 CST    0.79   1.71    6   24    8  59.4  59.5 1018.3 -9.9 -9.999 -99.9 -99.99 -9.99
2020/02/16 10:36 CST    0.81   1.71    6   29    7  59.4  59.5 1018.3 -9.9 -9.999 -99.9 -99.99 -9.99
2020/02/16 10:42 CST    0.83   1.71    5   32    7  59.4  59.5 1018.2 -9.9 -9.999 -99.9 -99.99 -9.99
2020/02/16 10:48 CST    0.85   1.71    3   66    6  59.7  59.5 1018.1 -9.9 -9.999 -99.9 -99.99 -9.99
2020/02/16 10:54 CST    0.87   1.73    4   48    5  59.7  59.5 1018.2 -9.9 -9.999 -99.9 -99.99 -9.99
2020/02/16 11:00 CST    0.89   1.77    1   60    5  59.7  59.5 1018.1 -9.9 -9.999 -99.9 -99.99 -9.99
2020/02/16 11:06 CST    0.90   1.79    3   49    4  59.7  59.5 1018.1 -9.9 -9.999 -99.9 -99.99 -9.99
2020/02/16 11:12 CST    0.92   1.80    3   67    5  59.7  59.5 1018.1 -9.9 -9.999 -99.9 -99.99 -9.99
2020/02/16 11:18 CST    0.93   1.80    3   71    5  59.7  59.5 1018.0 -9.9 -9.999 -99.9 -99.99 -9.99
2020/02/16 11:24 CST    0.94   1.82    4   25    6  59.5  59.5 1017.9 -9.9 -9.999 -99.9 -99.99 -9.99
2020/02/16 11:30 CST    0.96   1.84    2   52    4  59.9  59.5 1017.7 -9.9 -9.999 -99.9 -99.99 -9.99
2020/02/16 11:36 CST    0.97   1.85    3   37    4  59.9  59.5 1017.7 -9.9 -9.999 -99.9 -99.99 -9.99
2020/02/16 11:42 CST    0.98   1.86    2   74    3  60.3  59.5 1017.6 -9.9 -9.999 -99.9 -99.99 -9.99
2020/02/16 11:48 CST    0.99   1.88    2   40    3  60.1  59.5 1017.4 -9.9 -9.999 -99.9 -99.99 -9.99
2020/02/16 11:54 CST    1.00   1.90    2   50    3  60.3  59.5 1017.4 -9.9 -9.999 -99.9 -99.99 -9.99
2020/02/16 12:00 CST    1.00   1.92    3   62    5  60.3  59.5 1017.2 -9.9 -9.999 -99.9 -99.99 -9.99
2020/02/16 12:06 CST    1.01   1.92    5   36    6  60.1  59.5 1017.2 -9.9 -9.999 -99.9 -99.99 -9.99
2020/02/16 12:12 CST    1.02   1.92    5   40    6  59.7  59.5 1017.2 -9.9 -9.999 -99.9 -99.99 -9.99
2020/02/16 12:18 CST    1.02   1.91    4   45    6  59.9  59.5 1017.2 -9.9 -9.999 -99.9 -99.99 -9.99
2020/02/16 12:24 CST    1.03   1.91    3   81    4  60.3  59.5 1017.1 -9.9 -9.999 -99.9 -99.99 -9.99
2020/02/16 12:30 CST    1.03   1.92    3   47    4  60.1  59.5 1017.0 -9.9 -9.999 -99.9 -99.99 -9.99
2020/02/16 12:36 CST    1.04   1.90    4   49    6  60.1  59.5 1016.9 -9.9 -9.999 -99.9 -99.99 -9.99
2020/02/16 12:42 CST    1.04   1.90    3   55    5  60.3  59.5 1016.8 -9.9 -9.999 -99.9 -99.99 -9.99
2020/02/16 12:48 CST    1.04   1.91    4   70    4  60.1  59.5 1016.7 -9.9 -9.999 -99.9 -99.99 -9.99
2020/02/16 12:54 CST    1.04   1.86    2   60    4  60.3  59.5 1016.6 -9.9 -9.999 -99.9 -99.99 -9.99
2020/02/16 13:00 CST    1.04   1.86    3   74    4  60.3  59.5 1016.5 -9.9 -9.999 -99.9 -99.99 -9.99
2020/02/16 13:06 CST    1.04   1.89    3   49    4  60.3  59.5 1016.5 -9.9 -9.999 -99.9 -99.99 -9.99
2020/02/16 13:12 CST    1.04   1.89    2   70    3  60.4  59.5 1016.3 -9.9 -9.999 -99.9 -99.99 -9.99
2020/02/16 13:18 CST    1.04   1.87    2   75    3  61.3  59.5 1016.1 -9.9 -9.999 -99.9 -99.99 -9.99
2020/02/16 13:24 CST    1.04   1.87    2   89    3  61.9  59.5 1015.9 -9.9 -9.999 -99.9 -99.99 -9.99
2020/02/16 13:30 CST    1.04   1.85    3   56    4  61.7  59.5 1015.7 -9.9 -9.999 -99.9 -99.99 -9.99
2020/02/16 13:36 CST    1.04   1.85    1   79    4  62.8  59.5 1015.6 -9.9 -9.999 -99.9 -99.99 -9.99
2020/02/16 13:42 CST    1.04   1.87    1   53    3  63.3  59.5 1015.6 -9.9 -9.999 -99.9 -99.99 -9.99
2020/02/16 13:48 CST    1.04   1.87    3   90    4  63.5  59.5 1015.5 -9.9 -9.999 -99.9 -99.99 -9.99
2020/02/16 13:54 CST    1.03   1.86    3  101    5  63.5  59.5 1015.5 -9.9 -9.999 -99.9 -99.99 -9.99
2020/02/16 14:00 CST    1.03   1.84    4  138    8  63.1  59.5 1015.5 -9.9 -9.999 -99.9 -99.99 -9.99
2020/02/16 14:06 CST    1.03   1.79    5  136    6  63.0  59.5 1015.5 -9.9 -9.999 -99.9 -99.99 -9.99
2020/02/16 14:12 CST    1.02   1.82    6  131    7  63.5  59.5 1015.2 -9.9 -9.999 -99.9 -99.99 -9.99
2020/02/16 14:18 CST    1.02   1.82    5  123    8  63.3  59.5 1015.3 -9.9 -9.999 -99.9 -99.99 -9.99
2020/02/16 14:24 CST    1.02   1.77    5  125    7  63.5  59.5 1015.3 -9.9 -9.999 -99.9 -99.99 -9.99
2020/02/16 14:30 CST    1.01   1.75    5  136    7  63.3  59.5 1015.1 -9.9 -9.999 -99.9 -99.99 -9.99
2020/02/16 14:36 CST    1.01   1.80    4  130    8  63.7  59.5 1015.0 -9.9 -9.999 -99.9 -99.99 -9.99
2020/02/16 14:42 CST    1.01   1.82    5  159    8  63.1  59.5 1014.9 -9.9 -9.999 -99.9 -99.99 -9.99
2020/02/16 14:48 CST    1.00   1.81    5  139    8  63.0  59.5 1014.9 -9.9 -9.999 -99.9 -99.99 -9.99
2020/02/16 14:54 CST    1.00   1.76    5  118    7  63.5  59.5 1014.7 -9.9 -9.999 -99.9 -99.99 -9.99
2020/02/16 15:00 CST    0.99   1.78    5  134    7  63.5  59.5 1014.7 -9.9 -9.999 -99.9 -99.99 -9.99
2020/02/16 15:06 CST    0.99   1.78    5  125    7  63.9  59.5 1014.7 -9.9 -9.999 -99.9 -99.99 -9.99
2020/02/16 15:12 CST    0.98   1.80    4  133    7  64.4  59.5 1014.7 -9.9 -9.999 -99.9 -99.99 -9.99
2020/02/16 15:18 CST    0.98   1.75    5  125    6  65.1  59.5 1014.6 -9.9 -9.999 -99.9 -99.99 -9.99
2020/02/16 15:24 CST    0.98   1.74    6  126    8  64.2  59.5 1014.5 -9.9 -9.999 -99.9 -99.99 -9.99
2020/02/16 15:30 CST    0.97   1.75    7  130   10  62.2  59.5 1014.4 -9.9 -9.999 -99.9 -99.99 -9.99
2020/02/16 15:36 CST    0.97   1.80    7  144    9  61.9  59.5 1014.5 -9.9 -9.999 -99.9 -99.99 -9.99
2020/02/16 15:42 CST    0.96   1.83    6  142    9  61.5  59.5 1014.5 -9.9 -9.999 -99.9 -99.99 -9.99
2020/02/16 15:48 CST    0.96   1.82    7  140   11  61.0  59.5 1014.3 -9.9 -9.999 -99.9 -99.99 -9.99
2020/02/16 15:54 CST    0.95   1.78    7  129   11  60.6  59.5 1014.4 -9.9 -9.999 -99.9 -99.99 -9.99
2020/02/16 16:00 CST    0.95   1.76    5  144   11  60.8  59.5 1014.6 -9.9 -9.999 -99.9 -99.99 -9.99
2020/02/16 16:06 CST    0.94   1.80    4  143    9  60.8  59.5 1014.6 -9.9 -9.999 -99.9 -99.99 -9.99
2020/02/16 16:12 CST    0.94   1.79    8  123   10  60.3  59.5 1014.6 -9.9 -9.999 -99.9 -99.99 -9.99
2020/02/16 16:18 CST    0.93   1.81    7  143   10  60.3  59.5 1014.6 -9.9 -9.999 -99.9 -99.99 -9.99
2020/02/16 16:24 CST    0.93   1.82    6  145   10  60.4  59.5 1014.7 -9.9 -9.999 -99.9 -99.99 -9.99
2020/02/16 16:30 CST    0.93   1.79    7  129   10  60.3  59.5 1014.9 -9.9 -9.999 -99.9 -99.99 -9.99
2020/02/16 16:36 CST    0.92   1.76    6  126   10  60.3  59.5 1014.9 -9.9 -9.999 -99.9 -99.99 -9.99
2020/02/16 16:42 CST    0.92   1.85    5  132    9  60.3  59.5 1015.0 -9.9 -9.999 -99.9 -99.99 -9.99
2020/02/16 16:48 CST    0.91   1.83    6  122    9  60.1  59.5 1015.0 -9.9 -9.999 -99.9 -99.99 -9.99
2020/02/16 16:54 CST    0.91 -99.99    7  127   12  60.3  59.5 1014.9 -9.9 -9.999 -99.9 -99.99 -9.99
2020/02/16 17:00 CST    0.90 -99.99 -999 -999 -999 -99.9 -99.9 -999.9 -9.9 -9.999 -99.9 -99.99 -9.99
2020/02/16 17:06 CST    0.90 -99.99 -999 -999 -999 -99.9 -99.9 -999.9 -9.9 -9.999 -99.9 -99.99 -9.99
2020/02/16 17:12 CST    0.90 -99.99 -999 -999 -999 -99.9 -99.9 -999.9 -9.9 -9.999 -99.9 -99.99 -9.99
2020/02/16 17:18 CST    0.89 -99.99 -999 -999 -999 -99.9 -99.9 -999.9 -9.9 -9.999 -99.9 -99.99 -9.99
2020/02/16 17:24 CST    0.89 -99.99 -999 -999 -999 -99.9 -99.9 -999.9 -9.9 -9.999 -99.9 -99.99 -9.99
2020/02/16 17:30 CST    0.88 -99.99 -999 -999 -999 -99.9 -99.9 -999.9 -9.9 -9.999 -99.9 -99.99 -9.99
2020/02/16 17:36 CST    0.88 -99.99 -999 -999 -999 -99.9 -99.9 -999.9 -9.9 -9.999 -99.9 -99.99 -9.99
2020/02/16 17:42 CST    0.88 -99.99 -999 -999 -999 -99.9 -99.9 -999.9 -9.9 -9.999 -99.9 -99.99 -9.99
2020/02/16 17:48 CST    0.87 -99.99 -999 -999 -999 -99.9 -99.9 -999.9 -9.9 -9.999 -99.9 -99.99 -9.99
2020/02/16 17:54 CST    0.87 -99.99 -999 -999 -999 -99.9 -99.9 -999.9 -9.9 -9.999 -99.9 -99.99 -9.99
2020/02/16 18:00 CST    0.87 -99.99 -999 -999 -999 -99.9 -99.9 -999.9 -9.9 -9.999 -99.9 -99.99 -9.99
2020/02/16 18:06 CST    0.86 -99.99 -999 -999 -999 -99.9 -99.9 -999.9 -9.9 -9.999 -99.9 -99.99 -9.99
2020/02/16 18:12 CST    0.86 -99.99 -999 -999 -999 -99.9 -99.9 -999.9 -9.9 -9.999 -99.9 -99.99 -9.99
2020/02/16 18:18 CST    0.86 -99.99 -999 -999 -999 -99.9 -99.9 -999.9 -9.9 -9.999 -99.9 -99.99 -9.99
2020/02/16 18:24 CST    0.86 -99.99 -999 -999 -999 -99.9 -99.9 -999.9 -9.9 -9.999 -99.9 -99.99 -9.99
2020/02/16 18:30 CST    0.85 -99.99 -999 -999 -999 -99.9 -99.9 -999.9 -9.9 -9.999 -99.9 -99.99 -9.99
2020/02/16 18:36 CST    0.85 -99.99 -999 -999 -999 -99.9 -99.9 -999.9 -9.9 -9.999 -99.9 -99.99 -9.99
2020/02/16 18:42 CST    0.85 -99.99 -999 -999 -999 -99.9 -99.9 -999.9 -9.9 -9.999 -99.9 -99.99 -9.99
2020/02/16 18:48 CST    0.85 -99.99 -999 -999 -999 -99.9 -99.9 -999.9 -9.9 -9.999 -99.9 -99.99 -9.99
2020/02/16 18:54 CST    0.85 -99.99 -999 -999 -999 -99.9 -99.9 -999.9 -9.9 -9.999 -99.9 -99.99 -9.99
2020/02/16 19:00 CST    0.84 -99.99 -999 -999 -999 -99.9 -99.9 -999.9 -9.9 -9.999 -99.9 -99.99 -9.99
2020/02/16 19:06 CST    0.84 -99.99 -999 -999 -999 -99.9 -99.9 -999.9 -9.9 -9.999 -99.9 -99.99 -9.99
2020/02/16 19:12 CST    0.84 -99.99 -999 -999 -999 -99.9 -99.9 -999.9 -9.9 -9.999 -99.9 -99.99 -9.99
2020/02/16 19:18 CST    0.84 -99.99 -999 -999 -999 -99.9 -99.9 -999.9 -9.9 -9.999 -99.9 -99.99 -9.99
2020/02/16 19:24 CST    0.84 -99.99 -999 -999 -999 -99.9 -99.9 -999.9 -9.9 -9.999 -99.9 -99.99 -9.99
2020/02/16 19:30 CST    0.84 -99.99 -999 -999 -999 -99.9 -99.9 -999.9 -9.9 -9.999 -99.9 -99.99 -9.99
2020/02/16 19:36 CST    0.84 -99.99 -999 -999 -999 -99.9 -99.9 -999.9 -9.9 -9.999 -99.9 -99.99 -9.99
2020/02/16 19:42 CST    0.84 -99.99 -999 -999 -999 -99.9 -99.9 -999.9 -9.9 -9.999 -99.9 -99.99 -9.99
2020/02/16 19:48 CST    0.84 -99.99 -999 -999 -999 -99.9 -99.9 -999.9 -9.9 -9.999 -99.9 -99.99 -9.99
2020/02/16 19:54 CST    0.84 -99.99 -999 -999 -999 -99.9 -99.9 -999.9 -9.9 -9.999 -99.9 -99.99 -9.99
2020/02/16 20:00 CST    0.84 -99.99 -999 -999 -999 -99.9 -99.9 -999.9 -9.9 -9.999 -99.9 -99.99 -9.99
2020/02/16 20:06 CST    0.84 -99.99 -999 -999 -999 -99.9 -99.9 -999.9 -9.9 -9.999 -99.9 -99.99 -9.99
2020/02/16 20:12 CST    0.84 -99.99 -999 -999 -999 -99.9 -99.9 -999.9 -9.9 -9.999 -99.9 -99.99 -9.99
2020/02/16 20:18 CST    0.84 -99.99 -999 -999 -999 -99.9 -99.9 -999.9 -9.9 -9.999 -99.9 -99.99 -9.99
2020/02/16 20:24 CST    0.84 -99.99 -999 -999 -999 -99.9 -99.9 -999.9 -9.9 -9.999 -99.9 -99.99 -9.99
2020/02/16 20:30 CST    0.84 -99.99 -999 -999 -999 -99.9 -99.9 -999.9 -9.9 -9.999 -99.9 -99.99 -9.99
2020/02/16 20:36 CST    0.84 -99.99 -999 -999 -999 -99.9 -99.9 -999.9 -9.9 -9.999 -99.9 -99.99 -9.99
2020/02/16 20:42 CST    0.84 -99.99 -999 -999 -999 -99.9 -99.9 -999.9 -9.9 -9.999 -99.9 -99.99 -9.99
2020/02/16 20:48 CST    0.84 -99.99 -999 -999 -999 -99.9 -99.9 -999.9 -9.9 -9.999 -99.9 -99.99 -9.99
2020/02/16 20:54 CST    0.83 -99.99 -999 -999 -999 -99.9 -99.9 -999.9 -9.9 -9.999 -99.9 -99.99 -9.99
2020/02/16 21:00 CST    0.83 -99.99 -999 -999 -999 -99.9 -99.9 -999.9 -9.9 -9.999 -99.9 -99.99 -9.99
2020/02/16 21:06 CST    0.83 -99.99 -999 -999 -999 -99.9 -99.9 -999.9 -9.9 -9.999 -99.9 -99.99 -9.99
2020/02/16 21:12 CST    0.83 -99.99 -999 -999 -999 -99.9 -99.9 -999.9 -9.9 -9.999 -99.9 -99.99 -9.99
2020/02/16 21:18 CST    0.83 -99.99 -999 -999 -999 -99.9 -99.9 -999.9 -9.9 -9.999 -99.9 -99.99 -9.99
2020/02/16 21:24 CST    0.82 -99.99 -999 -999 -999 -99.9 -99.9 -999.9 -9.9 -9.999 -99.9 -99.99 -9.99
2020/02/16 21:30 CST    0.82 -99.99 -999 -999 -999 -99.9 -99.9 -999.9 -9.9 -9.999 -99.9 -99.99 -9.99
2020/02/16 21:36 CST    0.82 -99.99 -999 -999 -999 -99.9 -99.9 -999.9 -9.9 -9.999 -99.9 -99.99 -9.99
2020/02/16 21:42 CST    0.81 -99.99 -999 -999 -999 -99.9 -99.9 -999.9 -9.9 -9.999 -99.9 -99.99 -9.99
2020/02/16 21:48 CST    0.81 -99.99 -999 -999 -999 -99.9 -99.9 -999.9 -9.9 -9.999 -99.9 -99.99 -9.99
2020/02/16 21:54 CST    0.80 -99.99 -999 -999 -999 -99.9 -99.9 -999.9 -9.9 -9.999 -99.9 -99.99 -9.99
2020/02/16 22:00 CST    0.80 -99.99 -999 -999 -999 -99.9 -99.9 -999.9 -9.9 -9.999 -99.9 -99.99 -9.99
2020/02/16 22:06 CST    0.79 -99.99 -999 -999 -999 -99.9 -99.9 -999.9 -9.9 -9.999 -99.9 -99.99 -9.99
2020/02/16 22:12 CST    0.78 -99.99 -999 -999 -999 -99.9 -99.9 -999.9 -9.9 -9.999 -99.9 -99.99 -9.99
2020/02/16 22:18 CST    0.77 -99.99 -999 -999 -999 -99.9 -99.9 -999.9 -9.9 -9.999 -99.9 -99.99 -9.99
2020/02/16 22:24 CST    0.76 -99.99 -999 -999 -999 -99.9 -99.9 -999.9 -9.9 -9.999 -99.9 -99.99 -9.99
2020/02/16 22:30 CST    0.75 -99.99 -999 -999 -999 -99.9 -99.9 -999.9 -9.9 -9.999 -99.9 -99.99 -9.99
2020/02/16 22:36 CST    0.74 -99.99 -999 -999 -999 -99.9 -99.9 -999.9 -9.9 -9.999 -99.9 -99.99 -9.99
2020/02/16 22:42 CST    0.73 -99.99 -999 -999 -999 -99.9 -99.9 -999.9 -9.9 -9.999 -99.9 -99.99 -9.99
2020/02/16 22:48 CST    0.72 -99.99 -999 -999 -999 -99.9 -99.9 -999.9 -9.9 -9.999 -99.9 -99.99 -9.99
2020/02/16 22:54 CST    0.71 -99.99 -999 -999 -999 -99.9 -99.9 -999.9 -9.9 -9.999 -99.9 -99.99 -9.99
2020/02/16 23:00 CST    0.69 -99.99 -999 -999 -999 -99.9 -99.9 -999.9 -9.9 -9.999 -99.9 -99.99 -9.99
2020/02/16 23:06 CST    0.68 -99.99 -999 -999 -999 -99.9 -99.9 -999.9 -9.9 -9.999 -99.9 -99.99 -9.99